[[{"header":{"parameterUnit":"m.s-1","parameterCategory":1,"la1":30.2991,"la2":30.254,"lo1":-89.0895,"lo2":-89.0444,"dy":0.0017,"dx":0.0017,"nx":28,"ny":28,"refTime":"2023-05-23T21:00:00:Z","depth":0,"parameterNumber":2,"parameterNumberName":"U-component_of_WINDS"},"data":[0,0,0,0,0,0,0,0,0,0,0,0,0,0,0,0,0,0,0,0,0,0,0,0,0,0,0,0,0,0,0,0,0,0,0,0,0,0,0,0,0,0,0,0,0,0,0,0,0,0,0,0,0,0,0,0,0,0,-3.4878,-3.4879,0,-3.4948,-3.4949,-3.4949,-3.4871,-3.4868,-3.4865,-3.4862,-3.4932,-3.4937,-3.4941,0,0,0,0,0,0,0,0,0,0,0,0,0,-3.4675,-3.4679,-3.4878,-3.4879,-3.488,-3.4948,-3.4949,-3.4949,-3.4872,-3.4868,-3.4864,-3.4861,-3.4931,-3.4936,-3.4942,0,0,0,0,0,0,0,0,0,0,0,0,0,-3.4755,-3.468,-3.4878,-3.4849,-3.4847,-3.4947,-3.4949,-3.495,-3.4872,-3.4868,-3.4864,-3.4859,-3.4929,-3.4936,-3.4942,-3.5074,0,0,-3.4963,-3.4966,0,0,0,0,0,0,0,0,-3.4751,-3.4763,-3.4852,-3.4851,-3.4849,-3.4896,-3.4902,-3.4991,-3.4874,-3.4863,-3.4862,-3.4857,-3.4924,-3.4931,-3.4953,-3.5077,-3.508,-3.4964,-3.4968,-3.4971,-3.4973,0,0,0,0,0,0,0,-3.4745,-3.476,-3.4905,-3.4854,-3.4852,-3.4832,-3.4838,-3.4919,-3.4917,-3.4863,-3.4858,-3.4867,-3.4922,-3.4947,-3.4955,-3.5081,-3.4964,-3.497,-3.4974,-3.4977,-3.5315,-3.532,0,0,0,0,0,0,-3.4743,-3.4755,-3.4903,-3.4907,-3.4788,-3.4839,-3.4846,-3.4886,-3.4916,-3.4916,-3.4871,-3.4863,-3.4937,-3.4947,-3.4957,-3.5112,-3.4971,-3.4978,-3.4982,-3.531,-3.5316,-3.5321,0,0,0,0,0,0,-3.4739,-3.4757,-3.49,-3.483,-3.4847,-3.4847,-3.4892,-3.4889,-3.4914,-3.4922,-3.4921,-3.4897,-3.4934,-3.4947,-3.5045,-3.5114,-3.4981,-3.4987,-3.5305,-3.5312,-3.5319,-3.5425,0,0,0,0,0,0,-3.4734,-3.4756,-3.4807,-3.4832,-3.4851,-3.4989,-3.4896,-3.4894,-3.4927,-3.4917,-3.4946,-3.4947,-3.4932,-3.5035,-3.5052,-3.5121,-3.4992,-3.5298,-3.5308,-3.5317,-3.5416,-3.5435,-3.5452,0,0,0,0,0,-3.4727,-3.4834,-3.481,-3.4828,-3.4914,-3.4993,-3.5004,-3.4985,-3.4933,-3.4983,-3.4988,-3.4946,-3.5103,-3.5046,-3.5064,-3.5136,-3.5294,-3.5305,-3.5316,-3.5408,-3.5431,-3.5452,0,0,0,0,0,0,-3.4816,-3.4837,-3.481,-3.4929,-3.496,-3.498,-3.5043,-3.5011,-3.5057,-3.5046,-3.502,-3.5028,-3.5132,-3.5144,-3.5079,-3.5265,-3.519,-3.5205,-3.5254,-3.5276,-3.5294,-3.5289,-3.4998,0,0,0,0,0,-3.485,-3.4913,-3.4927,-3.503,-3.5047,-3.5043,-3.5076,-3.5059,-3.509,-3.5102,-3.5114,-3.5145,-3.5202,-3.5239,-3.5292,-3.5417,-3.5422,-3.5475,-3.5493,-3.5508,-3.5522,-3.5588,-3.5612,-3.5357,-3.5357,-3.5357,0,0,-3.492,-3.4939,-3.498,-3.5048,-3.507,-3.5136,-3.5054,-3.5126,-3.5174,-3.5113,-3.5207,-3.5217,-3.5249,-3.5362,-3.5412,-3.5375,-3.5593,-3.5522,-3.5534,-3.5539,-3.5602,-3.5626,-3.5647,-3.5365,-3.5363,-3.5362,0,0,-3.5081,-3.5102,-3.519,-3.5214,-3.5248,-3.5244,-3.5266,-3.5291,-3.5295,-3.5389,-3.5344,-3.54,-3.5498,-3.5523,-3.5549,-3.5719,-3.5682,-3.5737,-3.5832,-3.5897,-3.5917,-3.5935,-3.5996,-3.6018,-3.575,-3.575,-3.575,0,-3.5163,-3.5261,-3.5239,-3.5315,-3.5346,-3.5294,-3.5382,-3.5406,-3.5456,-3.5479,-3.5436,-3.5558,-3.5576,-3.5694,-3.5735,-3.5758,-3.5781,-3.5734,-3.5916,-3.5934,-3.595,-3.6008,-3.6031,-3.5756,-3.5756,-3.5755,-3.5754,0,-3.536,-3.5429,-3.5495,-3.5546,-3.5584,-3.5666,-3.5656,-3.5697,-3.5677,-3.5677,-3.5773,-3.5793,-3.5848,-3.5875,-3.5855,-3.599,-3.5965,-3.592,-3.5845,-3.5981,-3.6035,-3.6057,-3.5766,-3.5763,-3.5761,-3.576,0,0,-3.5581,-3.5617,-3.5642,-3.5664,-3.5699,-3.5751,-3.583,-3.5884,-3.5921,-3.5956,-3.6022,-3.6106,-3.6064,-3.6093,-3.6076,-3.6133,-3.6266,-3.608,-3.6081,-3.6115,-3.6416,-3.645,-3.6476,-3.6242,-3.6246,-3.6249,-3.6413,0,-3.5742,-3.5881,-3.5863,-3.5995,-3.6057,-3.6008,-3.6077,-3.6105,-3.6108,-3.616,-3.6162,-3.6222,-3.6163,-3.618,-3.6234,-3.6239,-3.6327,-3.6227,-3.6302,-3.6305,-3.6296,-3.6504,-3.654,-3.6694,-3.6434,-3.6437,-3.644,0,-3.595,-3.5994,-3.6133,-3.6157,-3.6183,-3.6245,-3.6294,-3.6345,-3.6375,-3.6373,-3.6405,-3.6377,-3.6456,-3.6379,-3.6486,-3.6419,-3.6448,-3.6455,-3.646,-3.6467,-3.6381,-3.6517,-3.6743,-3.6766,-3.6473,-3.647,-3.6468,0,-3.6097,-3.6191,-3.6286,-3.6306,-3.6337,-3.6382,-3.6397,-3.6423,-3.6457,-3.6499,-3.6521,-3.6571,-3.6599,-3.6638,-3.6625,-3.657,-3.6735,-3.6657,-3.6735,-3.6735,-3.6772,-3.677,-3.7007,-3.6791,-3.6791,-3.679,-3.679,0,-3.628,-3.6367,-3.6352,-3.6411,-3.6507,-3.6485,-3.658,-3.6588,-3.6612,-3.6671,-3.6631,-3.6686,-3.6665,-3.6719,-3.6708,-3.6799,-3.6812,-3.6812,-3.6808,-3.6816,-3.6816,-3.6835,-3.6824,-3.6796,-3.6795,-3.6794,-3.6793,0,-3.646,-3.6454,-3.6555,-3.6576,-3.6583,-3.6653,-3.667,-3.6725,-3.6724,-3.6799,-3.6815,-3.6813,-3.6875,-3.6865,-3.6933,-3.6926,-3.7039,-3.7022,-3.703,-3.7026,-3.7105,-3.7098,-3.7362,-3.7396,-3.7158,-3.716,-3.7162,0,-3.6578,-3.6644,-3.6672,-3.6709,-3.6727,-3.6787,-3.6821,-3.6802,-3.684,-3.6879,-3.6929,-3.6987,-3.7033,-3.7134,-3.7138,-3.719,-3.7174,-3.7263,-3.7182,-3.7187,-3.7176,-3.7172,-3.7179,-3.728,-3.7282,-3.7285,-3.7286,0,-3.6787,-3.6781,-3.6833,-3.6884,-3.6927,-3.6966,-3.7001,-3.7033,-3.7016,-3.7061,-3.7124,-3.7159,-3.7229,-3.7287,-3.7336,-3.735,-3.7316,-3.7312,-3.7333,-3.7342,-3.7343,-3.7344,-3.7074,-3.7306,-3.7304,-3.7303,-3.7302,-3.7301,-3.694,-3.6996,-3.7025,-3.7084,-3.7108,-3.7142,-3.7194,-3.72,-3.7252,-3.7308,-3.7293,-3.7365,-3.7393,-3.7454,-3.7474,-3.7529,-3.7496,-3.7526,-3.7534,-3.7542,-3.7552,-3.7334,-3.7538,-3.7537,-3.7536,-3.7536,-3.7536,0,-3.7147,-3.7163,-3.7218,-3.7268,-3.7315,-3.7279,-3.7315,-3.7356,-3.742,-3.7449,-3.7495,-3.7568,-3.7624,-3.7633,-3.7686,-3.7728,-3.7714,-3.7743,-3.774,-3.7744,-3.7578,-3.7555,-3.7754,-3.7754,-3.7754,-3.7754,-3.7753,-3.7753,-3.726,-3.7354,-3.7351,-3.7455,-3.747,-3.7541,-3.7565,-3.7595,-3.7619,-3.7701,-3.7748,-3.7754,-3.7775,-3.7829,-3.7879,-3.788,-3.7901,-3.7937,-3.7932,-3.7777,-3.7755,-3.7734,-3.7713,-3.7941,-3.7942,-3.8093,-3.8094,-3.8095]},{"header":{"parameterUnit":"m.s-1","parameterCategory":1,"la1":30.2991,"la2":30.254,"lo1":-89.0895,"lo2":-89.0444,"dy":0.0017,"dx":0.0017,"nx":28,"ny":28,"refTime":"2023-05-23T21:00:00:Z","depth":0,"parameterNumber":3,"parameterNumberName":"V-component_of_WINDS"},"data":[0,0,0,0,0,0,0,0,0,0,0,0,0,0,0,0,0,0,0,0,0,0,0,0,0,0,0,0,0,0,0,0,0,0,0,0,0,0,0,0,0,0,0,0,0,0,0,0,0,0,0,0,0,0,0,0,0,0,-4.0477,-4.0477,0,-4.0479,-4.0479,-4.0479,-4.0419,-4.0417,-4.0416,-4.0414,-4.0416,-4.0418,-4.0419,0,0,0,0,0,0,0,0,0,0,0,0,0,-4.0421,-4.0422,-4.0477,-4.0477,-4.0477,-4.0479,-4.0479,-4.0479,-4.0419,-4.0417,-4.0415,-4.0414,-4.0416,-4.0418,-4.0419,0,0,0,0,0,0,0,0,0,0,0,0,0,-4.0436,-4.0423,-4.0477,-4.0448,-4.0445,-4.0479,-4.0479,-4.0479,-4.042,-4.0417,-4.0415,-4.0413,-4.0415,-4.0417,-4.042,-4.0482,0,0,-4.0427,-4.0428,0,0,0,0,0,0,0,0,-4.0435,-4.0438,-4.0452,-4.045,-4.0447,-4.0446,-4.046,-4.048,-4.042,-4.0429,-4.0414,-4.0411,-4.0428,-4.0429,-4.0435,-4.0482,-4.0482,-4.0427,-4.0428,-4.0429,-4.043,0,0,0,0,0,0,0,-4.0434,-4.0438,-4.0478,-4.0452,-4.0449,-4.0434,-4.0433,-4.0463,-4.0442,-4.0428,-4.0424,-4.0425,-4.0426,-4.0433,-4.0434,-4.0482,-4.0427,-4.0429,-4.043,-4.0431,-4.0577,-4.058,0,0,0,0,0,0,-4.0438,-4.0438,-4.0478,-4.0478,-4.0435,-4.0437,-4.0436,-4.0449,-4.0442,-4.0438,-4.0427,-4.0422,-4.043,-4.0432,-4.0434,-4.0505,-4.0429,-4.0431,-4.0433,-4.0575,-4.0578,-4.0581,0,0,0,0,0,0,-4.0437,-4.0442,-4.0478,-4.0456,-4.046,-4.044,-4.0455,-4.045,-4.0456,-4.0441,-4.0437,-4.0438,-4.0428,-4.0431,-4.047,-4.0504,-4.0432,-4.0435,-4.0572,-4.0576,-4.0579,-4.0648,0,0,0,0,0,0,-4.0435,-4.0442,-4.0466,-4.0457,-4.0461,-4.0514,-4.0457,-4.0452,-4.0461,-4.0454,-4.0449,-4.0446,-4.0427,-4.0467,-4.0472,-4.0506,-4.0436,-4.0569,-4.0574,-4.0578,-4.0642,-4.0653,-4.0663,0,0,0,0,0,-4.0433,-4.0486,-4.0467,-4.0472,-4.0491,-4.0516,-4.0518,-4.0494,-4.0464,-4.0487,-4.0476,-4.0447,-4.05,-4.0471,-4.0477,-4.0512,-4.0567,-4.0572,-4.0578,-4.0638,-4.0651,-4.0662,0,0,0,0,0,0,-4.0499,-4.0484,-4.0464,-4.0515,-4.0517,-4.0506,-4.0535,-4.051,-4.0521,-4.0514,-4.0484,-4.0484,-4.0527,-4.0523,-4.0492,-4.057,-4.0528,-4.0535,-4.0571,-4.0584,-4.0594,-4.0594,-4.0438,0,0,0,0,0,-4.0519,-4.0541,-4.0527,-4.0573,-4.0575,-4.0555,-4.0565,-4.0546,-4.0547,-4.0548,-4.0541,-4.0543,-4.056,-4.0572,-4.0587,-4.0641,-4.0639,-4.0668,-4.0678,-4.0687,-4.0693,-4.072,-4.0732,-4.0599,-4.0599,-4.0599,0,0,-4.0562,-4.0556,-4.0572,-4.0586,-4.0586,-4.0608,-4.0556,-4.0583,-4.0599,-4.0552,-4.0588,-4.0583,-4.0583,-4.0629,-4.065,-4.0628,-4.0729,-4.0694,-4.0701,-4.0703,-4.0727,-4.074,-4.0751,-4.0603,-4.0602,-4.0602,0,0,-4.065,-4.0649,-4.0686,-4.0687,-4.0686,-4.0672,-4.0681,-4.0673,-4.0667,-4.0703,-4.0667,-4.0686,-4.0716,-4.0717,-4.0722,-4.0808,-4.0781,-4.0814,-4.0868,-4.0894,-4.0904,-4.0914,-4.0943,-4.0954,-4.0821,-4.0821,-4.0821,0,-4.0703,-4.0736,-4.0709,-4.0737,-4.0744,-4.0701,-4.0738,-4.074,-4.0745,-4.075,-4.0725,-4.0761,-4.0758,-4.0804,-4.0824,-4.083,-4.0838,-4.0814,-4.0905,-4.0914,-4.0922,-4.095,-4.0961,-4.0825,-4.0824,-4.0824,-4.0823,0,-4.08,-4.0823,-4.0853,-4.0858,-4.0868,-4.0901,-4.0877,-4.0891,-4.087,-4.0858,-4.0894,-4.0889,-4.0901,-4.0911,-4.0892,-4.0953,-4.0939,-4.0911,-4.0867,-4.0939,-4.0965,-4.0975,-4.083,-4.0829,-4.0828,-4.0827,0,0,-4.0932,-4.0919,-4.093,-4.093,-4.0926,-4.0943,-4.0973,-4.0984,-4.0995,-4.1,-4.1023,-4.1049,-4.1022,-4.1027,-4.1007,-4.1031,-4.1098,-4.0999,-4.0998,-4.1016,-4.1163,-4.1183,-4.1196,-4.1079,-4.1081,-4.1083,-4.1162,0,-4.1016,-4.1066,-4.1042,-4.1095,-4.1114,-4.1074,-4.1099,-4.1099,-4.1088,-4.1103,-4.1091,-4.1109,-4.1073,-4.1075,-4.1097,-4.1085,-4.1126,-4.1079,-4.11,-4.1101,-4.11,-4.121,-4.1232,-4.1308,-4.1172,-4.1174,-4.1175,0,-4.1122,-4.1129,-4.1184,-4.1173,-4.1181,-4.1205,-4.1211,-4.1227,-4.1225,-4.1215,-4.122,-4.1195,-4.1222,-4.1179,-4.1216,-4.1185,-4.1191,-4.1187,-4.1189,-4.119,-4.1142,-4.1212,-4.1331,-4.1342,-4.1191,-4.1189,-4.1188,0,-4.121,-4.1234,-4.1269,-4.1271,-4.126,-4.1277,-4.1273,-4.1269,-4.1277,-4.1283,-4.1287,-4.1297,-4.1302,-4.131,-4.1288,-4.1259,-4.1327,-4.1283,-4.1319,-4.132,-4.1335,-4.1334,-4.1456,-4.1342,-4.1341,-4.1341,-4.1341,0,-4.1307,-4.1342,-4.1308,-4.133,-4.1367,-4.1338,-4.1375,-4.1367,-4.1363,-4.1382,-4.1347,-4.1366,-4.1335,-4.135,-4.1333,-4.1365,-4.1368,-4.136,-4.1355,-4.1363,-4.1364,-4.1367,-4.136,-4.1344,-4.1343,-4.1343,-4.1342,0,-4.1412,-4.1391,-4.1426,-4.1412,-4.141,-4.1437,-4.1425,-4.1444,-4.143,-4.1454,-4.1458,-4.1437,-4.1452,-4.143,-4.1444,-4.1432,-4.1476,-4.1464,-4.1477,-4.1473,-4.151,-4.1506,-4.1637,-4.1652,-4.1529,-4.153,-4.1531,0,-4.1475,-4.1501,-4.1488,-4.1498,-4.1496,-4.1512,-4.1519,-4.1491,-4.1499,-4.1498,-4.1517,-4.1529,-4.1538,-4.1565,-4.155,-4.156,-4.1547,-4.1592,-4.1548,-4.1554,-4.1546,-4.1544,-4.1546,-4.1601,-4.1602,-4.1603,-4.1604,0,-4.1588,-4.1576,-4.1587,-4.1594,-4.1603,-4.1608,-4.1609,-4.1619,-4.1589,-4.1601,-4.1616,-4.1622,-4.1635,-4.1648,-4.1653,-4.1649,-4.1622,-4.1618,-4.1627,-4.1635,-4.164,-4.1636,-4.15,-4.1615,-4.1614,-4.1613,-4.1613,-4.1612,-4.1673,-4.1693,-4.1687,-4.17,-4.1698,-4.17,-4.1716,-4.1703,-4.1715,-4.1723,-4.1706,-4.1724,-4.172,-4.1725,-4.1723,-4.1737,-4.1718,-4.1731,-4.1734,-4.1737,-4.1742,-4.1639,-4.1739,-4.1738,-4.1738,-4.1738,-4.1737,0,-4.1783,-4.1777,-4.1789,-4.1791,-4.1801,-4.1774,-4.1774,-4.1784,-4.18,-4.1798,-4.1807,-4.1823,-4.1834,-4.182,-4.1829,-4.1843,-4.183,-4.1846,-4.1844,-4.1843,-4.176,-4.1751,-4.1856,-4.1856,-4.1856,-4.1856,-4.1856,-4.1856,-4.1842,-4.1873,-4.1859,-4.1889,-4.1882,-4.1899,-4.1901,-4.1902,-4.19,-4.192,-4.1929,-4.1919,-4.1911,-4.1919,-4.1928,-4.1923,-4.1928,-4.1948,-4.1939,-4.1861,-4.1849,-4.1838,-4.183,-4.1949,-4.1949,-4.202,-4.2021,-4.2021]}]]